Back to catalog

FREGAT R/B

AliveMEO
NORAD 39192·ROCKET BODY·🇷🇺 Russia

Launched Jun 25, 2013 from Guiana Space Centre

Loading…

Next Passes (next 24 hours)

TLE

FreshSource: Space-Track

Epoch: Sep 14, 2026, 12:28 UTC

1 39192U 13031E   26257.51952992 -.00000024  00000-0  00000-0 0  9993
2 39192   0.1664 350.8611 0008911 277.4528  91.5852  5.20984135251680

Track FREGAT R/B in real time with AllMySat

Download on the App Store